カタログに戻る

STARLINK-5443

運用中通信VLEO
NORAD 54781·PAYLOAD·🇺🇸 United States

打ち上げ Dec 17, 2022 から Cape Canaveral Space Force Station

Loading…

次のパス (今後24時間)

TLE

最新Source: CelesTrak SupGP

元期: Sep 14, 2026, 21:18 UTC

1 54781C 22175Z   26257.88798611  .00047036  00000+0  13897-2 0  2578
2 54781  53.1573 245.8846 0001248  94.0930 171.9790 15.34366849    12

AllMySatでSTARLINK-5443をリアルタイム追跡

Download on the App Store